Showing default

PELICAN 3009, 62631

Orbit data source: Space-Track

PELICAN 3009, 62631 is a payload satellite owned by Planet (US) in SSO that was launched on Tue, 14 Jan 2025 UTC via an FALCON 9 launch vehicle from the Air Force Western Test Range (AFWTR). Payload-class satellites include a variety of spacecraft equipped with specific instruments for various scientific and technological missions. These include communications satellites like Starlink; space stations such as the ISS; scientific satellites like the Hubble; Earth observation satellites from companies like Planet Labs, Umbra, and HawkEye 360; GPS; miniature CubeSats for education and research; and military/defense satellites.

Loading next visibility...
Identifier
62631, 2025-009Y
Orbit
SSO
Country
Flag of USUS
Related business
Manufacturer
Planet
Mission
Operational Commercial Imaging
Bus & Motor
PELICAN, XE AOCS
Mass
160 kg wet, 146 kg dry
Launch date (UTC)
2025-01-14 (11 months ago)
Launch vehicle
FALCON 9
Launch site
Air Force Western Test Range (AFWTR)
Object type
Payload
Rocket body
Debris
Shape & HBR
Box + 2 Pan, 1.0 m
Radar Cross Section
1.955 m², Large (>1 m²)

Expand to show TLE details & history
Last TLE update: 18 hours ago

TLE from 18 hours ago
0 PELICAN 3009
1 62631U 25009Y   25346.80278329  .00052480  00000-0  12972-2 0  9995
2 62631  97.4146  70.9843 0004677 152.4127 207.7368 15.40294023 50860
Epoch: 2025-12-12T19:16Z
TLE epoch observation values (Epoch: 2025-12-12T19:16:00.476Z)
Latitude
-0.00002°
Longitude
60.24315°
Altitude
451.184 km
Speed
7.64 km/s
True Right ascension
04h 43m 56s
True Declination
0° 00' 00"
Sunlit
Object was in full shadow at epoch
Visualization orbit readout
Latitude
Unknown
Longitude
Unknown
Altitude
Unknown
Speed
Unknown
Apparent Right ascension
Unknown
Apparent Declination
Unknown
Sunlit
N/A
Visualization observer readout
Local Sidereal Time
11:34:07
Azimuth
Unknown
Elevation
Unknown
Doppler factor
Unknown
Orbital elements
Apogee altitude
445.37 km
Perigee altitude
438.99 km
Semi-major axis
6,820.317 km
Eccentricity
0.00047
Inclination
97.4146°
RAAN
70.9843°
Arg. of periapsis
152.4127°
True anomaly
207.71187°
Mean anomaly
207.7368°
Eccentric anomaly
207.72433°
Mean motion
3.85333 °/min
Orbital period
93.43 mins
BSTAR
0.0012972
Loading maneuver chart data...
Computing Atmospheric mass density...
Loading historical data...
Loading historical data...
Loading historical data...
Loading historical data...
Loading historical data...
Loading historical data...
Loading historical data...

Documentation

Showing up to 5 results
|